Regional Weather Roundup
Issued by NWS State College, PA

Home | Current Version | Previous Version | Graphics & Text | Print | Product List | Glossary On
Versions: 1 2 3 4 5 6 7 8 9 10 11 12 13 14 15 16 17 18 19 20 21 22 23 24 25 26 27 28 29 30 31 32 33 34 35 36 37 38 39 40 41 42 43 44 45 46 47 48 49 50
000
ASUS41 KCTP 220203
RWRCTP

REGIONAL WEATHER ROUNDUP
NATIONAL WEATHER SERVICE STATE COLLEGE PA
1000 PM EDT MON AUG 21 2017

Note: "fair" indicates few or no clouds below 12,000 feet with no
significant weather and/or obstructions to visibility.

* = STATION THAT DOES NOT REPORT PRECIPITATION /E.G. RAIN...SNOW...ETC/
    THUNDER OR FOG.

PAZ002>004-007>009-013>016-020>023-029>032-220300-
WESTERN PENNSYLVANIA

CITY           SKY/WX    TMP DP  RH WIND       PRES   REMARKS
ERIE           CLEAR     77  69  76 S6        30.05S
MEADVILLE      CLEAR     74  70  87 VRB3      30.11R
FRANKLIN*      MOCLDY    73  68  83 S6        30.13S
NEW CASTLE     NOT AVBL
BEAVER COUNTY  NOT AVBL
BUTLER*        PTCLDY    75  71  87 CALM      30.14R
PITTSBURGH INT PTCLDY    77  73  87 S6        30.13R
PITTSBURGH     CLOUDY    77  69  76 S6        30.13R
INDIANA*       PTCLDY    73  72  94 CALM      30.18R
LATROBE        NOT AVBL
WASHINGTON CO* PTCLDY    72  68  88 CALM      30.15R
$$

PAZ004>006-010>012-017>019-024>028-033>037-041-042-045-046-049>053-220300-
CENTRAL PENNSYLVANIA

CITY           SKY/WX    TMP DP  RH WIND       PRES   REMARKS
BRADFORD       CLEAR     64  63  96 CALM      30.16R
DUBOIS         CLOUDY    72  68  87 S3        30.15S
CLEARFIELD     CLOUDY    73  70  90 SW3       30.15R
JOHNSTOWN      CLEAR     74  67  78 W8        30.20R
ALTOONA        CLOUDY    69  68  96 CALM      30.17R
STATE COLLEGE  NOT AVBL
WILLIAMSPORT   RAIN      71  71 100 CALM      30.09S VSB 3/4
SELINSGROVE    CLEAR     71  71 100 CALM      30.11S FOG
FT INDIANTOWN  PTCLDY    71  70  99 CALM      30.13S
CAPITAL CITY   PTCLDY    77  69  76 SE8       30.12R
HARRISBURG     CLOUDY    76  71  85 SE8       30.11S
YORK           PTCLDY    77  71  82 S7        30.11F
$$

PAZ038>040-043-044-047-048-054-055-060>062-067>071-220300-
EASTERN PENNSYLVANIA

CITY           SKY/WX    TMP DP  RH WIND       PRES   REMARKS
SCRANTON       CLEAR     70  68  93 CALM      30.13S
MOUNT POCONO   CLEAR     68  66  93 CALM      30.18S
ALLENTOWN      CLOUDY    76  71  85 CALM      30.12F
QUAKERTOWN*    CLOUDY    73  73 100 CALM      30.14F
READING        CLOUDY    73  73 100 W3        30.12S
LANCASTER      CLOUDY    71  69  93 E12       30.13S
COATESVILLE    CLOUDY    75  72  88 CALM      30.17R
POTTSTOWN      CLOUDY    75  75 100 S3        30.15S
BLUE BELL      CLOUDY    75  72  88 S3        30.14F
DOYLESTOWN     MOCLDY    77  71  82 VRB3      30.13S
WILLOW GROVE   NOT AVBL
NORTH PHILA    CLOUDY    80  71  74 VRB3      30.14S
PHILADELPHIA   CLOUDY    79  72  79 S6        30.13S
$$




USA.gov is the U.S. government's official web portal to all federal, state and local government web resources and services.